Location: Asheville, NC
(35.6000°N, 82.5500°W)
Time: 09:31:30

Oscar 11 - Pass Details

Date: 13 March 2018
Orbit: 613 x 626 km, 97.7° (Epoch: 19 March)

Event Time Altitude Azimuth Distance (km) Brightness Sun altitude
Exits shadow 21:43:00 20° 206° (SSW) 1,410 8.9 -26.3°
Maximum altitude 21:45:24 37° 262° (W) 949 8.4 -26.8°
Drops below altitude 10° 21:49:24 10° 330° (NNW) 1,974 10.2 -27.5°
Sets 21:51:43 0° 339° (NNW) 2,883 11.0 -28.0°
